Torna al catalogo

NOAA 16 DEB

AttivoSSO
NORAD 41511·DEBRIS·🇺🇸 United States

Lanciato Sep 21, 2000 da Vandenberg Space Force Base

Loading…

Prossimi Passaggi (prossime 24 ore)

TLE

AggiornatoSource: Space-Track

Epoca: Sep 14, 2026, 09:11 UTC

1 41511U 00055MK  26257.38270888  .00001779  00000-0  80222-3 0  9999
2 41511  98.6826 312.5337 0024502 208.8486 151.1339 14.23305206540611

Traccia NOAA 16 DEB in tempo reale con AllMySat

Download on the App Store